[[{"header":{"parameterUnit":"m.s-1","parameterCategory":1,"la1":30.2992,"la2":30.254,"lo1":-89.0895,"lo2":-89.0443,"dy":0.0025,"dx":0.0025,"nx":19,"ny":19,"refTime":"2026-04-25T03:00:00:Z","depth":0,"parameterNumber":2,"parameterNumberName":"U-component_of_WINDS"},"data":[0,0,0,-0.5266,-0.5267,-0.5315,-0.5315,-0.5373,-0.5373,0,0,0,0,0,0,0,0,0,0,0,-0.5248,-0.5248,-0.5266,-0.5267,-0.5315,-0.5315,-0.5373,-0.5373,0,0,0,0,0,0,0,0,0,0,0,-0.5248,-0.5248,-0.5248,-0.5267,-0.5315,-0.5315,-0.5372,-0.5338,0,0,0,0,0,0,0,0,0,0,-0.5292,-0.5271,-0.5248,-0.5248,-0.5268,-0.5315,-0.5315,-0.5337,-0.534,-0.5349,0,-0.5353,0,-0.5364,-0.5376,-0.5377,0,0,0,-0.5271,-0.5268,-0.5284,-0.5248,-0.5268,-0.5315,-0.5295,-0.5339,-0.5343,-0.5353,-0.5354,-0.5357,-0.5365,-0.5377,-0.5377,-0.5409,-0.5409,0,0,-0.5268,-0.5255,-0.5281,-0.5287,-0.5277,-0.5293,-0.5296,-0.5341,-0.5342,-0.5354,-0.5358,-0.5366,-0.5377,-0.5378,-0.5409,-0.5409,0,0,0,-0.5258,-0.5253,-0.5268,-0.5284,-0.5293,-0.5294,-0.5298,-0.534,-0.5346,-0.5359,-0.5366,-0.5377,-0.5378,-0.5409,-0.5409,-0.5394,0,0,0,-0.5257,-0.5247,-0.5267,-0.5259,-0.5292,-0.5317,-0.5295,-0.5343,-0.5348,-0.5366,-0.5377,-0.5379,-0.5409,-0.5409,-0.5394,-0.5389,0,0,0,-0.5246,-0.5246,-0.5251,-0.5258,-0.5278,-0.5316,-0.5325,-0.5344,-0.5353,-0.5377,-0.5379,-0.5409,-0.5409,-0.5394,-0.539,-0.5393,0,0,0,-0.5232,-0.5238,-0.5251,-0.5261,-0.5278,-0.5306,-0.5325,-0.5347,-0.5366,-0.5378,-0.5409,-0.5409,-0.5395,-0.539,-0.5393,-0.5393,-0.5392,0,0,-0.5232,-0.5238,-0.5245,-0.5257,-0.5279,-0.53,-0.5321,-0.5352,-0.5367,-0.5394,-0.5395,-0.5394,-0.539,-0.5393,-0.5388,-0.5387,0,0,0,-0.524,-0.5245,-0.5254,-0.527,-0.5292,-0.5312,-0.534,-0.5352,-0.5375,-0.5378,-0.5397,-0.5395,-0.5397,-0.5398,-0.5397,-0.54,-0.5408,-0.5408,-0.5408,-0.5222,-0.524,-0.5253,-0.5277,-0.5292,-0.5321,-0.5336,-0.5357,-0.5372,-0.5376,-0.5384,-0.5379,-0.5379,-0.5378,-0.5381,-0.5385,-0.5385,-0.5385,-0.5385,-0.5224,-0.5234,-0.5253,-0.5272,-0.5291,-0.5309,-0.5337,-0.5347,-0.5367,-0.5374,-0.5377,-0.5384,-0.5376,-0.538,-0.5384,-0.5385,-0.5385,-0.5385,-0.5385,-0.5214,-0.5222,-0.5235,-0.5259,-0.5277,-0.5301,-0.5319,-0.5337,-0.5354,-0.5357,-0.5368,-0.5368,-0.5371,-0.5361,-0.5361,-0.5361,-0.5361,-0.5361,-0.5361,-0.5199,-0.5214,-0.5225,-0.5249,-0.5261,-0.528,-0.5309,-0.5323,-0.5342,-0.5354,-0.5354,-0.5369,-0.5371,-0.5372,-0.5361,-0.5361,-0.5361,-0.5361,-0.5361,-0.5195,-0.5198,-0.5216,-0.5228,-0.5257,-0.5273,-0.5296,-0.5321,-0.5335,-0.5343,-0.5358,-0.5356,-0.5364,-0.5365,-0.5365,-0.5353,-0.5353,-0.5353,-0.5353,-0.5186,-0.5191,-0.5213,-0.5231,-0.5251,-0.5273,-0.5294,-0.5317,-0.5342,-0.5352,-0.5356,-0.5358,-0.5358,-0.5366,-0.5367,-0.5367,-0.5356,-0.5356,-0.5356,-0.5184,-0.5192,-0.5205,-0.5227,-0.5252,-0.5273,-0.5293,-0.5315,-0.5344,-0.5357,-0.536,-0.536,-0.5363,-0.5363,-0.5376,-0.5377,-0.5379,0,0]},{"header":{"parameterUnit":"m.s-1","parameterCategory":1,"la1":30.2992,"la2":30.254,"lo1":-89.0895,"lo2":-89.0443,"dy":0.0025,"dx":0.0025,"nx":19,"ny":19,"refTime":"2026-04-25T03:00:00:Z","depth":0,"parameterNumber":3,"parameterNumberName":"V-component_of_WINDS"},"data":[0,0,0,4.9844,4.9844,4.9833,4.9833,4.9837,4.9838,0,0,0,0,0,0,0,0,0,0,0,4.9858,4.9859,4.9844,4.9844,4.9833,4.9833,4.9837,4.9838,0,0,0,0,0,0,0,0,0,0,0,4.9858,4.9859,4.9859,4.9844,4.9833,4.9833,4.9837,4.9839,0,0,0,0,0,0,0,0,0,0,4.9847,4.9871,4.9859,4.9859,4.9844,4.9833,4.9833,4.9839,4.9839,4.9851,0,4.9864,0,4.9851,4.9839,4.9839,0,0,0,4.9836,4.9871,4.9858,4.9859,4.9844,4.9833,4.9835,4.9839,4.9839,4.9851,4.9863,4.9863,4.9851,4.9839,4.9839,4.9933,4.9934,0,0,4.9836,4.9863,4.9858,4.9858,4.9861,4.9836,4.9835,4.9838,4.9854,4.9863,4.9863,4.9851,4.9839,4.984,4.9932,4.9933,0,0,0,4.9844,4.9863,4.985,4.9859,4.9855,4.9836,4.9835,4.9854,4.9847,4.9863,4.9851,4.984,4.984,4.9931,4.9933,4.9999,0,0,0,4.9844,4.9868,4.985,4.9866,4.9856,4.9854,4.9851,4.9847,4.9846,4.9851,4.984,4.984,4.993,4.9932,4.9995,5.0026,0,0,0,4.9855,4.9869,4.9871,4.9868,4.9864,4.9854,4.9847,4.9846,4.984,4.9839,4.984,4.993,4.9932,4.9992,5.002,5.0058,0,0,0,4.9876,4.993,4.9873,4.9929,4.9864,4.9895,4.9846,4.9868,4.9875,4.984,4.9931,4.9933,4.9991,5.0017,5.0055,5.0096,5.0115,0,0,4.9959,4.9941,4.9972,4.992,4.9968,4.9894,4.9951,4.9933,4.991,4.9927,4.9929,4.9996,5.002,5.0058,5.0213,5.0229,0,0,0,5.0008,5.0031,5.0037,5.0045,5.0033,5.0025,4.9995,4.9989,5.0002,4.9924,5.0019,5.0033,5.0054,5.0072,5.0085,5.0102,4.9942,4.9942,4.9942,5.0164,5.013,5.0179,5.0144,5.0153,5.0122,5.0126,5.0112,5.0075,5.0099,5.0104,5.0202,5.0224,5.0234,5.0252,5.0122,5.0122,5.0122,5.0123,5.0284,5.0311,5.0261,5.029,5.0255,5.0279,5.0252,5.0225,5.0244,5.0195,5.0212,5.0163,5.0252,5.0266,5.0127,5.0126,5.0126,5.0125,5.0125,5.0382,5.0389,5.038,5.0388,5.0399,5.0361,5.0381,5.0348,5.0316,5.0333,5.0335,5.0334,5.0329,5.0336,5.0337,5.0337,5.0337,5.0337,5.0338,5.0489,5.0476,5.0497,5.0488,5.0489,5.0486,5.0455,5.0455,5.0447,5.0421,5.0421,5.0383,5.0267,5.0239,5.0343,5.0342,5.0341,5.0341,5.034,5.0623,5.0587,5.0619,5.062,5.0607,5.062,5.0577,5.058,5.0575,5.0586,5.0544,5.0464,5.0443,5.0432,5.0409,5.0551,5.0551,5.0551,5.0551,5.0707,5.0693,5.0718,5.0722,5.0721,5.0686,5.0723,5.07,5.0671,5.0666,5.0641,5.0606,5.0597,5.0582,5.0568,5.0545,5.0719,5.0719,5.0719,5.0788,5.0772,5.081,5.0781,5.0768,5.0758,5.0793,5.08,5.0759,5.0725,5.0662,5.0655,5.0599,5.0582,5.0548,5.0527,5.0485,0,0]}]]